When you browse on this site, cookies collect data to enhance your experience and personalize the content and advertising you see.
Visit our Privacy Policy to learn more. By continuing to use the site, you agree to this use of cookies and data.
  • In Slovakia
  • List of Countries
  • For 7 days
  • Water Temperature
  • Satellite Maps
  • Weather Map
  • Weather Widgets
  • user-avatar
    Login

    Hourly Weather Michalovce

    Today, 14 December, Friday

    Time Temperature Precipitation Wind Pressure Humidity
    00:00 -1°C° 0 mm 2 mps 755 mmHg 86%
    01:00 -2°C° 0 mm 2 mps 756 mmHg 84%
    02:00 -2°C° 0 mm 2 mps 756 mmHg 83%
    03:00 -2°C° 0 mm 2 mps 756 mmHg 81%
    04:00 -2°C° 0 mm 2 mps 756 mmHg 80%
    05:00 -2°C° 0 mm 2 mps 756 mmHg 80%
    06:00 -2°C° 0 mm 2 mps 756 mmHg 80%
    07:00 -2°C° 0 mm 2 mps 756 mmHg 81%
    08:00 -1°C° 0 mm 2 mps 756 mmHg 77%
    09:00 -1°C° 0 mm 2 mps 756 mmHg 73%
    10:00 +1°C° 0 mm 2 mps 756 mmHg 70%
    11:00 +1°C° 0 mm 2 mps 756 mmHg 68%
    12:00 +2°C° 0 mm 2 mps 756 mmHg 66%
    13:00 +2°C° 0 mm 2 mps 756 mmHg 64%
    14:00 +1°C° 0 mm 2 mps 756 mmHg 68%
    15:00 +1°C° 0 mm 2 mps 756 mmHg 72%
    16:00 -1°C° 0 mm 2 mps 756 mmHg 76%
    17:00 -1°C° 0 mm 2 mps 756 mmHg 77%
    18:00 -1°C° 0 mm 3 mps 756 mmHg 79%
    19:00 -1°C° 0 mm 3 mps 756 mmHg 80%
    20:00 -1°C° 0 mm 3 mps 756 mmHg 80%
    21:00 -2°C° 0 mm 3 mps 756 mmHg 79%
    22:00 -2°C° 0 mm 3 mps 756 mmHg 79%
    23:00 -2°C° 0 mm 2 mps 756 mmHg 79%

    Tomorrow, 15 December, Saturday

    Time Temperature Precipitation Wind Pressure Humidity
    00:00 -2°C° 0 mm 2 mps 756 mmHg 79%
    01:00 -2°C° 0 mm 2 mps 756 mmHg 78%
    02:00 -2°C° 0 mm 2 mps 756 mmHg 78%
    03:00 -2°C° 0 mm 2 mps 756 mmHg 78%
    04:00 -2°C° 0 mm 2 mps 756 mmHg 78%
    05:00 -2°C° 0 mm 2 mps 756 mmHg 77%
    06:00 -2°C° 0 mm 3 mps 756 mmHg 76%
    07:00 -2°C° 0 mm 3 mps 756 mmHg 75%
    08:00 -2°C° 0 mm 3 mps 756 mmHg 71%
    09:00 -1°C° 0 mm 3 mps 756 mmHg 67%
    10:00 -1°C° 0 mm 3 mps 756 mmHg 64%
    11:00 +1°C° 0 mm 2 mps 756 mmHg 64%
    12:00 +1°C° 0 mm 2 mps 756 mmHg 63%
    13:00 +1°C° 0 mm 2 mps 755 mmHg 63%
    14:00 +1°C° 0.2 mm 2 mps 755 mmHg 68%
    15:00 -1°C° 0.2 mm 2 mps 755 mmHg 72%
    16:00 -1°C° 0.2 mm 2 mps 755 mmHg 77%
    17:00 -1°C° 0.2 mm 2 mps 755 mmHg 79%
    18:00 -1°C° 0.2 mm 2 mps 755 mmHg 82%
    19:00 -1°C° 0.2 mm 2 mps 755 mmHg 84%
    20:00 -1°C° 0.3 mm 2 mps 755 mmHg 85%
    21:00 -1°C° 0.3 mm 2 mps 755 mmHg 86%
    22:00 -1°C° 0.3 mm 2 mps 754 mmHg 87%
    23:00 -1°C° 0.2 mm 2 mps 754 mmHg 87%

    Day after tomorrow, 16 December, Sunday

    Time Temperature Precipitation Wind Pressure Humidity
    00:00 -1°C° 0.2 mm 2 mps 754 mmHg 87%
    01:00 -1°C° 0.2 mm 2 mps 754 mmHg 87%
    02:00 -1°C° 0.2 mm 2 mps 754 mmHg 87%
    03:00 +1°C° 0.2 mm 1 mps 753 mmHg 87%
    04:00 +1°C° 0.2 mm 1 mps 753 mmHg 88%
    05:00 +1°C° 0.2 mm 1 mps 753 mmHg 88%
    06:00 +1°C° 0.2 mm 1 mps 753 mmHg 88%
    07:00 +1°C° 0.2 mm 1 mps 753 mmHg 89%
    08:00 +2°C° 0.1 mm 1 mps 754 mmHg 89%
    09:00 +2°C° 0.1 mm 1 mps 754 mmHg 89%
    10:00 +2°C° 0.1 mm 0 mps 754 mmHg 89%
    11:00 +3°C° 0 mm 1 mps 754 mmHg 89%
    12:00 +3°C° 0 mm 1 mps 754 mmHg 90%
    13:00 +4°C° 0 mm 1 mps 754 mmHg 90%
    14:00 +3°C° 0 mm 1 mps 754 mmHg 92%
    15:00 +3°C° 0 mm 1 mps 754 mmHg 94%
    16:00 +2°C° 0 mm 1 mps 755 mmHg 95%
    17:00 +2°C° 0.1 mm 1 mps 755 mmHg 96%
    18:00 +2°C° 0.1 mm 1 mps 755 mmHg 96%
    19:00 +2°C° 0.1 mm 1 mps 756 mmHg 96%
    20:00 +2°C° 0.1 mm 1 mps 756 mmHg 96%
    21:00 +2°C° 0.1 mm 1 mps 756 mmHg 96%
    22:00 +1°C° 0.1 mm 2 mps 756 mmHg 96%
    23:00 +1°C° 0 mm 2 mps 756 mmHg 96%

    17 December, Monday

    Time Temperature Precipitation Wind Pressure Humidity
    00:00 +1°C° 0 mm 2 mps 756 mmHg 96%
    01:00 +2°C° 0 mm 1 mps 756 mmHg 95%
    02:00 +1°C° 0 mm 1 mps 756 mmHg 95%
    03:00 +1°C° 0 mm 1 mps 756 mmHg 95%
    04:00 +1°C° 0 mm 1 mps 756 mmHg 95%
    05:00 +1°C° 0 mm 1 mps 756 mmHg 95%
    06:00 +1°C° 0 mm 1 mps 756 mmHg 95%
    07:00 +1°C° 0 mm 1 mps 756 mmHg 95%
    08:00 0°C° 0 mm 0 mps 756 mmHg 93%
    09:00 +1°C° 0 mm 0 mps 756 mmHg 91%
    10:00 +1°C° 0 mm 0 mps 756 mmHg 89%
    11:00 +3°C° 0 mm 1 mps 756 mmHg 88%
    12:00 +3°C° 0 mm 1 mps 756 mmHg 87%
    13:00 +3°C° 0 mm 1 mps 756 mmHg 86%
    14:00 +3°C° 0.1 mm 1 mps 756 mmHg 86%
    15:00 +3°C° 0.1 mm 1 mps 756 mmHg 86%
    16:00 +2°C° 0.1 mm 2 mps 756 mmHg 87%
    17:00 +2°C° 0.1 mm 2 mps 756 mmHg 86%
    18:00 +2°C° 0.1 mm 2 mps 757 mmHg 86%
    19:00 +2°C° 0.1 mm 2 mps 757 mmHg 85%
    20:00 +2°C° 0.1 mm 2 mps 757 mmHg 85%
    21:00 +2°C° 0.1 mm 2 mps 757 mmHg 85%
    22:00 +1°C° 0.1 mm 3 mps 758 mmHg 85%
    23:00 +1°C° 0.1 mm 3 mps 758 mmHg 84%

    18 December, Tuesday

    Time Temperature Precipitation Wind Pressure Humidity
    00:00 0°C° 0.1 mm 3 mps 758 mmHg 84%
    01:00 0°C° 0.1 mm 3 mps 758 mmHg 84%
    02:00 0°C° 0 mm 3 mps 758 mmHg 84%
    03:00 0°C° 0 mm 3 mps 758 mmHg 84%
    04:00 0°C° 0 mm 3 mps 758 mmHg 84%
    05:00 0°C° 0.1 mm 3 mps 758 mmHg 84%
    06:00 0°C° 0.1 mm 3 mps 758 mmHg 85%
    07:00 0°C° 0.1 mm 3 mps 759 mmHg 85%
    08:00 0°C° 0 mm 3 mps 759 mmHg 84%
    09:00 +1°C° 0 mm 3 mps 759 mmHg 83%
    10:00 +1°C° 0 mm 3 mps 759 mmHg 83%
    11:00 +2°C° 0 mm 2 mps 759 mmHg 83%
    12:00 +3°C° 0 mm 2 mps 759 mmHg 83%
    13:00 +3°C° 0 mm 2 mps 758 mmHg 83%
    14:00 +2°C° 0 mm 2 mps 759 mmHg 85%
    15:00 +2°C° 0 mm 2 mps 759 mmHg 87%
    16:00 +1°C° 0 mm 2 mps 759 mmHg 89%
    17:00 +1°C° 0 mm 2 mps 759 mmHg 89%
    18:00 -1°C° 0 mm 2 mps 759 mmHg 90%
    19:00 -1°C° 0 mm 2 mps 759 mmHg 91%
    20:00 +1°C° 0 mm 1 mps 759 mmHg 91%
    21:00 +1°C° 0 mm 1 mps 759 mmHg 91%
    22:00 0°C° 0 mm 1 mps 759 mmHg 92%
    23:00 0°C° 0 mm 1 mps 759 mmHg 91%

    19 December, Wednesday

    Time Temperature Precipitation Wind Pressure Humidity
    00:00 0°C° 0 mm 1 mps 759 mmHg 91%
    01:00 -1°C° 0 mm 0 mps 759 mmHg 91%
    02:00 -1°C° 0 mm 0 mps 759 mmHg 91%
    03:00 -1°C° 0 mm 0 mps 759 mmHg 91%
    04:00 -1°C° 0 mm 0 mps 758 mmHg 91%
    05:00 0°C° 0 mm 1 mps 759 mmHg 92%
    06:00 0°C° 0 mm 1 mps 759 mmHg 92%
    07:00 0°C° 0 mm 1 mps 759 mmHg 93%
    08:00 0°C° 0 mm 1 mps 759 mmHg 91%
    09:00 +1°C° 0 mm 1 mps 759 mmHg 90%
    10:00 +2°C° 0 mm 1 mps 759 mmHg 89%
    11:00 +2°C° 0 mm 1 mps 758 mmHg 88%
    12:00 +1°C° 0 mm 2 mps 758 mmHg 88%
    13:00 +2°C° 0 mm 2 mps 757 mmHg 88%
    14:00 +1°C° 0 mm 2 mps 757 mmHg 90%
    15:00 +2°C° 0 mm 1 mps 757 mmHg 93%
    16:00 +1°C° 0 mm 1 mps 757 mmHg 96%
    17:00 +1°C° 0 mm 1 mps 757 mmHg 95%
    18:00 +1°C° 0 mm 1 mps 757 mmHg 95%
    19:00 +1°C° 0 mm 1 mps 757 mmHg 95%
    20:00 +1°C° 0 mm 1 mps 757 mmHg 95%
    21:00 +1°C° 0 mm 1 mps 757 mmHg 95%
    22:00 +2°C° 0 mm 1 mps 757 mmHg 94%
    23:00 +2°C° 0 mm 1 mps 756 mmHg 94%
    Show more